ROBUSTA-1E (ENSO)

Last updated on Sun Nov 09 2025 00:03:53 GMT+0000 (Coordinated Universal Time)

1 58470U 23185J 25312.50142601 .05845472 24493-5 12613-2 0 9992 2 58470 97.3330 35.6545 0009766 273.4712 86.5465 16.30567927108877
UTC large
Height (km)
Speed (km/s)
/
Latitude / Longitude
Inclination (degrees)
Orbital Period (minutes)
Azimuth
Elevation
Range (km)
Doppler Factor

Next 0 passes for location: London (51.5072 / 0.1276)

Sorry there are no passes over London.